Location: Bu�n Treun
(12.1333°N, 108.3167°E)
Time: 12:37:21
(UTC+00:00)

Cosmos 1953 Rocket - Pass Details

Date: 13 July 2020
Orbit: 605 x 634 km, 82.5° (Epoch: 06 August)

Event Time Altitude Azimuth Distance (km) Brightness Sun altitude
Exits shadow 12:26:04 30° 113° (ESE) 1,079 4.2 -16.4°
Maximum altitude 12:26:47 32° 92° (E) 1,034 4.2 -16.6°
Drops below altitude 10° 12:30:38 10° 29° (NNE) 1,946 6.1 -17.4°
Sets 12:33:00 0° 19° (NNE) 2,850 7.1 -17.9°
